Date,Time,Wetness (Wet Dry or Ice),Wind Speed (m/s),Temperature (C),Humidity (%),Pressure (mb),Radiation (W/m^2)
2019-07-29,01:05:00,DRY,6.25,12.30,48.0,776.00,0.7
2019-07-29,01:10:00,DRY,7.50,12.30,47.0,776.00,1.3
2019-07-29,01:15:00,DRY,6.25,12.25,45.0,776.00,1.4
2019-07-29,01:20:00,DRY,6.50,12.30,46.0,776.00,1.1
2019-07-29,01:25:00,DRY,5.85,12.30,46.5,775.50,0.6
2019-07-29,01:30:00,DRY,7.37,12.27,45.3,775.67,1.3
2019-07-29,01:35:00,DRY,7.10,12.35,47.0,776.00,1.2
2019-07-29,01:40:00,DRY,6.47,12.30,45.3,775.33,1.4
2019-07-29,01:45:00,DRY,6.90,12.30,47.0,775.50,1.0
2019-07-29,01:50:00,DRY,6.93,12.30,46.3,775.00,2.0
2019-07-29,01:55:00,DRY,6.95,12.30,47.5,775.00,1.2
2019-07-29,02:00:00,DRY,6.07,12.23,45.0,775.00,1.1
2019-07-29,02:05:00,DRY,5.05,12.20,47.0,775.00,1.2
2019-07-29,02:10:00,DRY,6.10,12.30,45.7,775.00,1.0
2019-07-29,02:15:00,DRY,5.90,12.30,44.0,775.00,1.1
2019-07-29,02:20:00,DRY,5.17,12.30,45.0,775.00,1.2
2019-07-29,02:25:00,DRY,7.15,12.30,41.5,775.00,1.2
2019-07-29,02:30:00,DRY,4.83,12.27,37.0,775.00,1.0
2019-07-29,02:35:00,DRY,4.45,12.25,39.0,775.00,0.9
2019-07-29,02:40:00,DRY,6.07,12.27,43.3,775.00,1.4
2019-07-29,02:45:00,DRY,5.80,12.20,45.0,775.00,1.1
2019-07-29,02:50:00,DRY,5.30,12.20,44.7,775.00,1.1
2019-07-29,02:55:00,DRY,4.85,12.15,45.5,775.00,1.3
2019-07-29,03:00:00,DRY,5.87,12.23,46.0,775.00,1.2
2019-07-29,03:05:00,DRY,5.75,12.20,46.0,775.00,1.1
2019-07-29,03:10:00,DRY,5.53,12.20,44.3,775.00,1.1
2019-07-29,03:15:00,DRY,6.80,12.15,43.5,775.00,1.0
2019-07-29,03:20:00,DRY,6.00,12.17,43.3,775.00,1.2
2019-07-29,03:25:00,DRY,7.80,12.25,40.5,775.00,1.0
2019-07-29,03:30:00,DRY,6.70,12.27,41.3,775.00,1.0
2019-07-29,03:35:00,DRY,6.45,12.15,41.5,775.00,1.1
2019-07-29,03:40:00,DRY,6.10,12.07,41.7,775.00,1.8
2019-07-29,03:45:00,DRY,6.20,11.95,40.0,775.00,1.1
2019-07-29,03:50:00,DRY,6.03,11.70,49.3,775.00,1.1
2019-07-29,03:55:00,DRY,6.15,11.50,51.5,775.00,1.1
2019-07-29,04:00:00,DRY,5.60,11.50,54.7,775.00,1.1
2019-07-29,04:05:00,DRY,5.25,11.50,55.0,775.00,0.9
2019-07-29,04:10:00,DRY,5.53,11.43,55.7,775.00,1.1
2019-07-29,04:15:00,DRY,5.20,11.50,55.0,775.00,1.2
2019-07-29,04:20:00,DRY,4.87,11.43,55.3,775.00,1.1
2019-07-29,04:25:00,DRY,6.00,11.40,56.0,775.00,0.8
2019-07-29,04:30:00,DRY,5.23,11.40,55.3,775.00,1.4
2019-07-29,04:35:00,DRY,6.55,11.40,54.5,775.00,0.9
2019-07-29,04:40:00,DRY,6.00,11.53,54.3,775.00,0.9
2019-07-29,04:45:00,DRY,4.85,11.60,54.0,775.00,1.4
2019-07-29,04:50:00,DRY,6.63,11.63,53.3,775.00,1.2
2019-07-29,04:55:00,DRY,7.00,11.70,51.5,775.00,0.7
2019-07-29,05:00:00,DRY,6.93,11.80,51.3,775.00,0.9
2019-07-29,05:05:00,DRY,6.60,11.75,51.0,775.00,0.9
2019-07-29,05:10:00,DRY,5.70,11.73,52.0,775.00,1.1
2019-07-29,05:15:00,DRY,4.95,11.70,52.5,775.00,1.4
2019-07-29,05:20:00,DRY,6.30,11.70,51.7,775.00,1.9
2019-07-29,05:25:00,DRY,5.00,11.70,49.0,775.00,1.2
2019-07-29,05:30:00,DRY,6.20,11.73,48.3,775.00,1.1
2019-07-29,05:35:00,DRY,6.20,11.70,50.5,775.00,0.8
2019-07-29,05:40:00,DRY,4.33,11.50,53.0,775.00,1.1
2019-07-29,05:45:00,DRY,5.10,11.45,54.5,775.00,1.0
2019-07-29,05:50:00,DRY,5.17,11.50,53.7,775.00,1.0
2019-07-29,05:55:00,DRY,7.50,11.45,55.5,775.00,1.4
2019-07-29,06:00:00,DRY,5.33,11.50,54.3,775.00,1.2
2019-07-29,06:05:00,DRY,5.40,11.60,57.5,775.00,1.4
2019-07-29,06:10:00,DRY,4.17,11.57,57.3,775.00,2.1
2019-07-29,06:15:00,DRY,4.05,11.70,58.5,775.00,1.5
2019-07-29,06:20:00,DRY,5.40,11.67,58.7,775.00,3.3
2019-07-29,06:25:00,DRY,6.00,11.80,54.0,775.00,4.5
2019-07-29,06:30:00,DRY,6.90,11.83,55.3,775.00,8.8
2019-07-29,06:35:00,DRY,6.05,11.90,57.5,775.00,16.9
2019-07-29,06:40:00,DRY,5.97,11.97,56.7,775.00,29.3
2019-07-29,06:45:00,DRY,6.40,12.05,56.5,775.00,45.8
2019-07-29,06:50:00,DRY,7.10,12.20,56.3,775.00,66.1
2019-07-29,06:55:00,DRY,5.80,12.35,55.0,775.00,89.5
2019-07-29,07:00:00,DRY,4.03,12.50,53.3,775.00,111.4
2019-07-29,07:05:00,DRY,5.65,12.70,55.5,775.00,128.6
2019-07-29,07:10:00,DRY,4.63,12.63,56.0,775.00,148.2
2019-07-29,07:15:00,DRY,4.15,12.65,56.0,775.00,167.7
2019-07-29,07:20:00,DRY,5.00,12.80,56.0,775.00,188.4
2019-07-29,07:25:00,DRY,4.45,12.85,57.0,775.50,209.2
2019-07-29,07:30:00,DRY,4.30,12.97,56.3,775.33,229.7
2019-07-29,07:35:00,DRY,5.70,12.95,56.5,775.00,250.1
2019-07-29,07:40:00,DRY,4.97,12.90,57.0,775.67,271.3
2019-07-29,07:45:00,DRY,3.55,13.00,57.0,776.00,293.4
2019-07-29,07:50:00,DRY,4.37,12.93,57.0,775.67,314.1
2019-07-29,07:55:00,DRY,5.70,12.95,57.0,776.00,335.5
2019-07-29,08:00:00,DRY,5.53,13.13,56.0,776.00,356.5
2019-07-29,08:05:00,DRY,5.20,13.00,56.0,776.00,378.2
2019-07-29,08:10:00,DRY,4.83,12.97,55.3,775.67,399.4
2019-07-29,08:15:00,DRY,5.20,13.20,55.0,776.00,421.3
2019-07-29,08:20:00,DRY,5.17,13.10,53.7,776.00,441.4
2019-07-29,08:25:00,DRY,4.80,13.40,51.0,775.50,462.9
2019-07-29,08:30:00,DRY,4.60,13.40,51.3,775.67,483.9
2019-07-29,08:35:00,DRY,4.55,13.35,51.0,776.00,504.5
2019-07-29,08:40:00,DRY,6.20,13.60,51.0,775.67,526.1
2019-07-29,08:45:00,DRY,4.90,13.75,49.5,776.00,545.5
2019-07-29,08:50:00,DRY,3.97,13.70,49.0,776.00,566.2
2019-07-29,08:55:00,DRY,5.65,13.85,49.0,776.00,586.1
2019-07-29,09:00:00,DRY,5.07,13.80,49.7,776.00,604.7
2019-07-29,09:05:00,DRY,5.50,13.95,49.5,776.00,624.3
2019-07-29,09:10:00,DRY,5.67,14.00,48.7,776.00,643.7
2019-07-29,09:15:00,DRY,5.20,13.95,47.5,776.00,661.4
2019-07-29,09:20:00,DRY,4.77,14.27,46.0,776.00,680.0
2019-07-29,09:25:00,DRY,5.80,14.40,45.0,776.00,698.3
2019-07-29,09:30:00,DRY,5.67,14.47,44.0,776.00,716.2
2019-07-29,09:35:00,DRY,6.05,14.15,43.5,776.00,734.3
2019-07-29,09:40:00,DRY,4.50,14.17,42.3,776.00,751.4
2019-07-29,09:45:00,DRY,3.75,14.55,42.5,776.00,768.0
2019-07-29,09:50:00,DRY,4.73,14.53,43.0,776.00,784.7
2019-07-29,09:55:00,DRY,4.80,14.85,41.5,776.00,800.4
2019-07-29,10:00:00,DRY,6.20,14.67,41.7,776.00,815.7
2019-07-29,10:05:00,DRY,4.25,14.45,41.5,776.00,834.4
2019-07-29,10:10:00,DRY,5.83,14.80,41.7,776.00,848.5
2019-07-29,10:15:00,DRY,4.45,14.95,41.5,776.00,861.6
2019-07-29,10:20:00,DRY,3.17,15.13,41.0,776.00,875.0
2019-07-29,10:25:00,DRY,4.55,14.85,43.0,776.00,889.5
2019-07-29,10:30:00,DRY,5.83,14.97,42.3,776.00,903.1
2019-07-29,10:35:00,DRY,4.15,15.10,42.5,776.00,917.2
2019-07-29,10:40:00,DRY,5.63,15.17,41.3,776.00,929.4
2019-07-29,10:45:00,DRY,6.35,15.15,42.0,776.00,941.6
2019-07-29,10:50:00,DRY,6.77,15.23,41.0,776.00,954.3
2019-07-29,10:55:00,DRY,4.95,15.05,40.5,776.00,966.8
2019-07-29,11:00:00,DRY,5.27,15.43,39.0,776.00,979.0
2019-07-29,11:05:00,DRY,5.45,15.30,39.5,776.00,990.8
2019-07-29,11:10:00,DRY,5.37,15.17,39.3,776.00,1001.4
2019-07-29,11:15:00,DRY,5.25,15.25,37.5,776.00,1010.2
2019-07-29,11:20:00,DRY,6.43,15.40,37.7,776.00,1020.3
2019-07-29,11:25:00,DRY,4.35,15.45,36.0,776.00,1030.2
2019-07-29,11:30:00,DRY,4.40,15.23,38.3,776.00,1039.1
2019-07-29,11:35:00,DRY,6.40,15.70,37.0,776.00,1047.3
2019-07-29,11:40:00,DRY,4.13,15.90,37.7,776.00,1056.4
2019-07-29,11:45:00,DRY,5.50,15.90,37.5,776.00,1064.3
2019-07-29,11:50:00,DRY,5.30,15.97,38.3,776.00,1070.9
2019-07-29,11:55:00,DRY,4.95,15.50,40.0,776.00,1077.3
2019-07-29,12:00:00,DRY,5.43,15.77,39.0,776.00,1082.9
2019-07-29,12:05:00,DRY,4.90,16.10,38.5,776.00,1089.3
2019-07-29,12:10:00,DRY,5.07,16.13,38.0,776.00,1095.1
2019-07-29,12:15:00,DRY,4.45,15.90,39.5,776.00,1100.9
2019-07-29,12:20:00,DRY,5.73,16.00,40.3,776.00,1105.1
2019-07-29,12:25:00,DRY,5.35,15.75,39.0,776.00,1109.2
2019-07-29,12:30:00,DRY,4.70,15.70,37.7,776.00,1112.1
2019-07-29,12:35:00,DRY,4.40,15.70,35.5,776.00,1115.2
2019-07-29,12:40:00,DRY,4.73,16.23,34.3,776.00,1119.6
2019-07-29,12:45:00,DRY,4.05,15.85,35.0,776.00,1122.2
2019-07-29,12:50:00,DRY,4.23,15.77,34.0,776.00,1122.8
2019-07-29,12:55:00,DRY,4.25,16.10,34.5,776.00,1124.8
2019-07-29,13:00:00,DRY,2.60,16.05,33.0,776.00,1126.1
2019-07-29,13:05:00,DRY,5.20,15.75,33.0,776.00,1126.1
2019-07-29,13:10:00,DRY,3.50,16.53,32.7,776.00,1128.6
2019-07-29,13:15:00,DRY,6.05,16.50,33.0,776.00,1128.0
2019-07-29,13:20:00,DRY,5.37,15.90,33.0,776.00,1129.9
2019-07-29,13:25:00,DRY,5.25,16.70,33.5,776.00,1130.3
2019-07-29,13:30:00,DRY,4.40,16.90,32.0,776.00,1130.2
2019-07-29,13:35:00,DRY,4.70,16.50,34.0,776.00,1127.7
2019-07-29,13:40:00,DRY,4.07,16.77,33.0,776.00,1126.0
2019-07-29,13:45:00,DRY,4.55,16.75,32.0,776.00,1125.5
2019-07-29,13:50:00,DRY,4.67,16.20,34.7,776.00,1123.4
2019-07-29,13:55:00,DRY,4.85,16.15,34.0,776.00,1120.3
2019-07-29,14:00:00,DRY,4.57,16.03,35.0,776.00,1117.6
2019-07-29,14:05:00,DRY,5.60,16.65,34.0,776.00,1114.8
2019-07-29,14:10:00,DRY,5.17,16.33,35.0,776.00,1110.5
2019-07-29,14:15:00,DRY,4.45,16.60,34.0,776.00,1107.0
2019-07-29,14:20:00,DRY,3.13,16.40,33.7,776.00,1103.0
2019-07-29,14:25:00,DRY,3.95,16.30,35.5,776.00,1096.3
2019-07-29,14:30:00,DRY,4.37,16.80,34.7,776.00,1089.7
2019-07-29,14:35:00,DRY,4.55,16.45,35.5,776.00,1083.2
2019-07-29,14:40:00,DRY,6.00,16.53,37.3,776.00,1075.6
2019-07-29,14:45:00,DRY,6.35,16.25,37.5,776.00,1068.9
2019-07-29,14:50:00,DRY,4.43,15.93,41.0,776.00,1060.0
2019-07-29,14:55:00,DRY,6.05,16.00,38.5,776.00,1052.9
2019-07-29,15:00:00,DRY,5.80,15.93,37.0,776.00,1042.8
2019-07-29,15:05:00,DRY,4.20,15.90,39.0,776.00,1031.8
2019-07-29,15:10:00,DRY,3.77,15.67,39.7,776.00,1022.4
2019-07-29,15:15:00,DRY,5.75,16.30,37.0,776.00,1012.5
2019-07-29,15:20:00,DRY,5.20,15.57,39.3,776.00,1002.4
2019-07-29,15:25:00,DRY,4.35,15.60,39.0,776.00,991.5
2019-07-29,15:30:00,DRY,6.73,15.47,39.3,776.00,979.6
2019-07-29,15:35:00,DRY,5.20,15.45,42.0,776.00,968.2
2019-07-29,15:40:00,DRY,3.93,15.83,40.0,776.00,955.4
2019-07-29,15:45:00,DRY,3.50,15.60,40.5,776.00,942.1
2019-07-29,15:50:00,DRY,6.80,15.57,39.3,776.00,930.4
2019-07-29,15:55:00,DRY,6.30,15.50,41.0,776.00,917.6
2019-07-29,16:00:00,DRY,5.13,15.50,38.3,776.00,903.2
2019-07-29,16:05:00,DRY,5.90,15.35,37.0,776.00,890.2
2019-07-29,16:10:00,DRY,4.60,15.37,36.7,776.00,874.9
2019-07-29,16:15:00,DRY,4.80,15.95,36.0,776.00,860.8
2019-07-29,16:20:00,DRY,4.83,15.47,35.3,776.00,845.0
2019-07-29,16:25:00,DRY,4.30,16.05,31.0,776.00,830.7
2019-07-29,16:30:00,DRY,4.70,15.67,33.3,776.00,813.5
2019-07-29,16:35:00,DRY,5.65,15.85,30.0,776.00,798.0
2019-07-29,16:40:00,DRY,5.13,15.57,31.7,776.00,781.1
2019-07-29,16:45:00,DRY,5.20,15.65,32.5,776.00,764.0
2019-07-29,16:50:00,DRY,5.27,15.73,31.7,776.00,747.3
2019-07-29,16:55:00,DRY,4.65,15.80,35.0,776.00,729.3
2019-07-29,17:00:00,DRY,4.77,15.80,33.3,776.00,710.2
2019-07-29,17:05:00,DRY,6.20,15.65,34.0,776.00,693.0
2019-07-29,17:10:00,DRY,5.07,15.50,31.3,776.00,674.7
2019-07-29,17:15:00,DRY,5.85,15.30,33.5,776.00,656.5
2019-07-29,17:20:00,DRY,5.03,15.30,35.3,776.00,637.0
2019-07-29,17:25:00,DRY,4.75,15.10,44.5,776.00,617.4
2019-07-29,17:30:00,DRY,5.80,14.83,45.3,776.00,596.7
2019-07-29,17:35:00,DRY,4.85,14.75,54.5,776.00,577.2
2019-07-29,17:40:00,DRY,6.13,14.23,56.0,776.00,557.4
2019-07-29,17:45:00,DRY,3.70,14.25,57.0,776.00,536.1
2019-07-29,17:50:00,DRY,5.30,13.83,58.7,776.00,516.5
2019-07-29,17:55:00,DRY,5.95,13.45,60.0,776.00,495.9
2019-07-29,18:00:00,DRY,5.80,13.43,60.3,776.00,474.8
2019-07-29,18:05:00,DRY,6.50,13.25,61.0,775.50,454.0
2019-07-29,18:10:00,DRY,6.90,13.03,61.7,776.00,432.5
2019-07-29,18:15:00,DRY,5.00,12.80,63.5,776.00,410.4
2019-07-29,18:20:00,DRY,7.30,13.05,61.0,776.00,385.9
2019-07-29,18:25:00,DRY,6.95,12.75,62.5,776.00,369.1
2019-07-29,18:30:00,DRY,7.13,12.83,61.7,776.00,347.6
2019-07-29,18:35:00,DRY,5.20,12.70,61.5,776.00,327.1
2019-07-29,18:40:00,DRY,8.03,12.83,60.3,776.00,305.0
2019-07-29,18:45:00,DRY,5.70,12.70,57.5,775.50,283.8
2019-07-29,18:50:00,DRY,8.03,12.47,58.3,776.00,262.8
2019-07-29,18:55:00,DRY,6.50,12.50,52.0,776.00,242.3
2019-07-29,19:00:00,DRY,6.23,12.53,50.7,776.00,222.7
2019-07-29,19:05:00,DRY,4.90,12.50,52.0,776.00,202.6
2019-07-29,19:10:00,DRY,6.27,12.50,48.7,776.00,183.3
2019-07-29,19:15:00,DRY,10.10,12.70,39.5,776.00,164.6
2019-07-29,19:20:00,DRY,6.67,12.70,39.3,776.00,146.9
2019-07-29,19:25:00,DRY,7.70,12.45,43.5,776.00,127.8
2019-07-29,19:30:00,DRY,8.17,12.37,42.0,776.00,103.6
2019-07-29,19:35:00,DRY,6.90,11.95,47.0,776.00,80.3
2019-07-29,19:40:00,DRY,7.13,12.23,42.0,776.00,59.8
2019-07-29,19:45:00,DRY,9.70,12.10,39.0,776.00,42.0
2019-07-29,19:50:00,DRY,8.03,12.00,37.0,776.00,28.4
2019-07-29,19:55:00,DRY,7.65,12.05,34.0,776.00,18.4
2019-07-29,20:00:00,DRY,7.10,11.77,37.0,776.00,12.9
2019-07-29,20:05:00,DRY,7.05,11.65,36.0,776.00,9.3
2019-07-29,20:10:00,DRY,6.20,11.43,40.7,776.00,5.6
2019-07-29,20:15:00,DRY,7.30,11.40,39.0,776.00,4.0
2019-07-29,20:20:00,DRY,6.10,11.27,41.3,776.00,2.0
2019-07-29,20:25:00,DRY,7.10,11.20,43.0,776.00,1.4
2019-07-29,20:30:00,DRY,6.83,11.10,42.7,776.00,1.3
2019-07-29,20:35:00,DRY,8.20,11.15,42.5,776.00,1.3
2019-07-29,20:40:00,DRY,8.17,11.17,40.7,776.00,1.1
2019-07-29,20:45:00,DRY,7.15,11.20,40.5,776.00,1.4
2019-07-29,20:50:00,DRY,8.27,11.10,40.3,776.00,1.3
2019-07-29,20:55:00,DRY,9.20,11.20,39.0,776.00,1.1
2019-07-29,21:00:00,DRY,7.23,11.20,39.0,776.00,1.2
2019-07-29,21:05:00,DRY,5.80,11.20,39.5,776.00,1.2
2019-07-29,21:10:00,DRY,6.93,11.17,40.3,776.00,0.9
2019-07-29,21:15:00,DRY,7.40,11.00,40.5,776.00,1.3
2019-07-29,21:20:00,DRY,7.63,11.07,39.7,777.00,1.2
2019-07-29,21:25:00,DRY,8.25,11.15,37.0,777.00,1.1
2019-07-29,21:30:00,DRY,8.37,11.20,36.3,776.67,1.2
2019-07-29,21:35:00,DRY,7.50,11.15,38.0,777.00,1.3
2019-07-29,21:40:00,DRY,7.87,11.10,38.3,777.00,1.1
2019-07-29,21:45:00,DRY,10.00,11.05,39.0,776.50,1.2
2019-07-29,21:50:00,DRY,8.87,11.03,39.0,777.00,1.2
2019-07-29,21:55:00,DRY,7.05,11.05,40.0,777.00,1.3
2019-07-29,22:00:00,DRY,8.07,11.10,38.3,777.00,1.4
2019-07-29,22:05:00,DRY,7.40,11.10,39.0,777.00,1.6
2019-07-29,22:10:00,DRY,7.30,11.07,38.3,777.00,0.9
2019-07-29,22:15:00,DRY,7.90,11.10,38.0,777.00,1.3
2019-07-29,22:20:00,DRY,8.20,11.10,38.7,777.00,1.3
2019-07-29,22:25:00,DRY,7.85,11.15,38.0,777.00,1.1
2019-07-29,22:30:00,DRY,7.80,11.27,36.7,777.00,1.2
2019-07-29,22:35:00,DRY,7.20,11.30,36.0,777.00,1.3
2019-07-29,22:40:00,DRY,6.57,11.30,36.3,777.00,1.2
2019-07-29,22:45:00,DRY,5.60,11.30,37.0,777.00,1.1
2019-07-29,22:50:00,DRY,8.90,11.33,36.0,777.00,1.3
2019-07-29,22:55:00,DRY,6.85,11.40,35.5,777.00,1.5
2019-07-29,23:00:00,DRY,6.13,11.33,36.0,777.00,1.1
2019-07-29,23:05:00,DRY,8.95,11.30,36.0,777.00,1.2
2019-07-29,23:10:00,DRY,7.83,11.33,35.3,777.00,1.4
2019-07-29,23:15:00,DRY,6.95,11.25,36.5,777.00,1.4
2019-07-29,23:20:00,DRY,6.37,11.27,36.3,777.00,2.0
2019-07-29,23:25:00,DRY,7.10,11.30,36.0,777.00,1.2
2019-07-29,23:30:00,DRY,8.67,11.33,35.7,777.00,1.4
2019-07-29,23:35:00,DRY,9.05,11.50,35.0,777.00,1.1
2019-07-29,23:40:00,DRY,6.50,11.60,35.0,777.00,1.1
2019-07-29,23:45:00,DRY,6.80,11.50,35.0,777.00,0.8
2019-07-29,23:50:00,DRY,8.07,11.43,35.7,777.00,1.5
2019-07-29,23:55:00,DRY,7.95,11.55,36.0,777.00,1.8
2019-07-30,00:00:00,DRY,8.40,11.73,34.0,777.00,1.2
2019-07-30,00:05:00,DRY,8.50,11.75,33.5,777.00,1.0
2019-07-30,00:10:00,DRY,9.00,11.77,33.0,777.00,1.3
2019-07-30,00:15:00,DRY,6.45,11.85,32.0,777.00,1.2
2019-07-30,00:20:00,DRY,7.53,11.97,29.7,777.00,1.0
2019-07-30,00:25:00,DRY,8.05,11.80,33.5,777.00,1.2
2019-07-30,00:30:00,DRY,6.83,11.67,35.3,777.00,1.2
2019-07-30,00:35:00,DRY,7.25,11.60,33.5,777.00,1.1
2019-07-30,00:40:00,DRY,6.50,11.83,32.3,777.00,1.3
2019-07-30,00:45:00,DRY,7.95,11.85,31.5,777.00,1.4
2019-07-30,00:50:00,DRY,7.87,11.87,32.3,777.00,1.6
2019-07-30,00:55:00,DRY,6.65,11.85,30.5,777.00,0.8
2019-07-30,01:00:00,DRY,7.57,12.20,28.0,776.33,0.8
2019-07-30,01:05:00,DRY,9.35,12.35,27.5,776.50,1.1
2019-07-30,01:10:00,DRY,8.57,12.50,27.7,776.00,1.2
2019-07-30,01:15:00,DRY,8.55,12.55,27.5,776.00,1.1
2019-07-30,01:20:00,DRY,8.07,12.50,27.0,776.00,0.9
2019-07-30,01:25:00,DRY,8.35,12.50,27.5,776.00,1.2
2019-07-30,01:30:00,DRY,8.33,12.53,27.0,776.00,1.4
2019-07-30,01:35:00,DRY,7.70,12.50,27.0,776.00,1.1
2019-07-30,01:40:00,DRY,6.03,12.27,27.7,776.00,1.2
2019-07-30,01:45:00,DRY,7.70,12.15,28.0,776.00,1.6
2019-07-30,01:50:00,DRY,8.83,12.07,28.0,776.00,0.8
2019-07-30,01:55:00,DRY,9.30,11.95,28.5,776.00,1.1
2019-07-30,02:00:00,DRY,6.70,12.07,28.0,776.00,1.0
2019-07-30,02:05:00,DRY,6.65,12.10,28.5,776.00,1.0
2019-07-30,02:10:00,DRY,8.57,12.20,28.0,776.00,1.2
2019-07-30,02:15:00,DRY,8.40,12.10,28.0,776.00,1.1
2019-07-30,02:20:00,DRY,8.10,12.07,27.7,776.00,1.1
2019-07-30,02:25:00,DRY,8.55,12.00,27.5,776.00,0.8
2019-07-30,02:30:00,DRY,7.63,12.13,27.3,776.00,1.2
2019-07-30,02:35:00,DRY,7.50,12.05,27.0,776.00,1.1
2019-07-30,02:40:00,DRY,9.03,12.10,27.3,776.00,0.9
2019-07-30,02:45:00,DRY,8.30,12.10,27.0,776.00,1.1
2019-07-30,02:50:00,DRY,7.47,12.20,27.3,776.00,1.1
2019-07-30,02:55:00,DRY,7.95,12.15,28.0,776.00,1.5
2019-07-30,03:00:00,DRY,7.47,12.10,28.0,776.00,1.3
2019-07-30,03:05:00,DRY,5.95,12.10,28.0,776.00,1.0
2019-07-30,03:10:00,DRY,7.83,11.97,28.0,776.00,1.2
2019-07-30,03:15:00,DRY,7.45,12.00,28.0,776.00,1.3
2019-07-30,03:20:00,DRY,6.97,11.97,28.0,776.00,1.1
2019-07-30,03:25:00,DRY,9.00,12.05,28.0,776.00,1.6
2019-07-30,03:30:00,DRY,7.37,11.97,28.0,776.00,1.2
2019-07-30,03:35:00,DRY,7.55,11.85,28.0,776.00,1.2
2019-07-30,03:40:00,DRY,6.03,11.80,28.0,776.00,1.7
2019-07-30,03:45:00,DRY,6.55,11.70,28.0,776.00,1.2
2019-07-30,03:50:00,DRY,6.87,11.70,28.0,776.00,1.3
2019-07-30,03:55:00,DRY,8.60,11.65,28.0,775.00,0.6
2019-07-30,04:00:00,DRY,7.10,11.67,28.0,775.33,1.3
2019-07-30,04:05:00,DRY,9.35,11.65,28.0,775.50,1.1
2019-07-30,04:10:00,DRY,6.83,11.57,28.3,775.00,1.2
2019-07-30,04:15:00,DRY,6.75,11.50,29.0,775.00,1.2
2019-07-30,04:20:00,DRY,6.97,11.53,29.0,775.67,1.4
2019-07-30,04:25:00,DRY,7.75,11.50,29.0,775.00,1.2
2019-07-30,04:30:00,DRY,6.30,11.57,28.7,775.67,1.1
2019-07-30,04:35:00,DRY,9.65,11.50,28.5,775.00,0.5
2019-07-30,04:40:00,DRY,8.83,11.57,27.3,775.00,1.8
2019-07-30,04:45:00,DRY,8.85,11.70,25.5,775.00,1.1
2019-07-30,04:50:00,DRY,8.00,11.70,25.7,775.33,1.1
2019-07-30,04:55:00,DRY,7.20,11.75,26.5,775.50,1.1
2019-07-30,05:00:00,DRY,7.50,11.80,27.0,775.67,1.2
2019-07-30,05:05:00,DRY,6.70,11.85,26.5,775.00,1.4
2019-07-30,05:10:00,DRY,7.80,11.93,26.3,776.00,1.2
2019-07-30,05:15:00,DRY,7.35,11.65,28.5,776.00,1.0
2019-07-30,05:20:00,DRY,8.33,11.57,28.3,776.00,1.1
2019-07-30,05:25:00,DRY,7.85,11.50,30.0,775.50,1.0
2019-07-30,05:30:00,DRY,7.03,11.67,28.3,776.00,1.4
2019-07-30,05:35:00,DRY,6.40,11.80,29.5,776.00,0.7
2019-07-30,05:40:00,DRY,6.73,11.53,31.3,776.00,2.9
2019-07-30,05:45:00,DRY,7.75,11.65,28.5,776.00,1.6
2019-07-30,05:50:00,DRY,6.50,11.30,32.7,775.67,1.2
2019-07-30,05:55:00,DRY,6.70,11.30,33.0,775.00,1.0
2019-07-30,06:00:00,DRY,6.27,11.50,32.3,775.33,1.3
2019-07-30,06:05:00,DRY,8.55,11.40,32.0,776.00,0.9
2019-07-30,06:10:00,DRY,5.87,11.50,32.0,775.67,0.9
2019-07-30,06:15:00,DRY,6.95,11.40,31.5,776.00,1.5
2019-07-30,06:20:00,DRY,7.67,11.50,33.0,776.00,2.2
2019-07-30,06:25:00,DRY,6.35,11.55,33.5,776.00,4.1
2019-07-30,06:30:00,DRY,7.00,11.57,34.0,775.67,8.4
2019-07-30,06:35:00,DRY,6.00,11.70,33.0,776.00,16.2
2019-07-30,06:40:00,DRY,7.03,11.57,34.7,776.00,27.4
2019-07-30,06:45:00,DRY,7.40,11.70,33.5,775.50,43.9
2019-07-30,06:50:00,DRY,7.33,11.73,32.7,775.67,64.1
2019-07-30,06:55:00,DRY,6.35,11.95,32.0,776.00,87.2
2019-07-30,07:00:00,DRY,5.60,11.83,34.0,776.00,108.4
2019-07-30,07:05:00,DRY,5.85,11.85,33.5,776.00,127.3
2019-07-30,07:10:00,DRY,7.07,11.90,34.3,776.00,145.8
2019-07-30,07:15:00,DRY,5.80,11.65,37.0,776.00,165.6
2019-07-30,07:20:00,DRY,6.03,11.83,36.7,776.00,186.1
2019-07-30,07:25:00,DRY,5.30,11.95,35.5,776.00,206.4
2019-07-30,07:30:00,DRY,7.33,12.10,35.7,776.00,226.9
2019-07-30,07:35:00,DRY,6.60,12.10,36.0,776.00,248.1
2019-07-30,07:40:00,DRY,6.20,12.30,34.3,776.00,269.3
2019-07-30,07:45:00,DRY,5.95,12.35,35.5,776.00,291.1
2019-07-30,07:50:00,DRY,7.37,12.37,37.3,776.00,312.3
2019-07-30,07:55:00,DRY,7.25,12.60,38.5,776.00,333.4
2019-07-30,08:00:00,DRY,5.60,12.60,38.0,776.00,355.0
2019-07-30,08:05:00,DRY,4.95,12.45,39.0,776.00,376.9
2019-07-30,08:10:00,DRY,4.87,12.70,37.7,776.00,397.8
2019-07-30,08:15:00,DRY,5.45,12.95,39.5,776.00,418.8
2019-07-30,08:20:00,DRY,5.97,13.07,40.7,776.00,439.8
2019-07-30,08:25:00,DRY,4.45,13.15,40.5,776.00,461.6
2019-07-30,08:30:00,DRY,4.90,13.13,40.7,776.00,482.7
2019-07-30,08:35:00,DRY,4.95,13.40,40.5,776.00,502.9
2019-07-30,08:40:00,DRY,5.27,13.50,40.3,776.00,524.7
2019-07-30,08:45:00,DRY,4.90,13.55,40.5,776.00,544.2
2019-07-30,08:50:00,DRY,5.13,13.63,41.0,776.00,564.5
2019-07-30,08:55:00,DRY,5.00,13.85,39.5,776.00,584.6
2019-07-30,09:00:00,DRY,5.43,14.03,39.0,776.00,603.9
2019-07-30,09:05:00,DRY,4.95,14.20,38.5,776.00,622.9
2019-07-30,09:10:00,DRY,5.97,14.30,39.3,776.00,642.5
2019-07-30,09:15:00,DRY,5.35,14.55,38.0,776.00,661.3
2019-07-30,09:20:00,DRY,4.57,14.47,38.7,776.00,679.5
2019-07-30,09:25:00,DRY,4.20,14.75,40.0,776.00,698.2
2019-07-30,09:30:00,DRY,4.80,14.37,42.7,776.00,716.0
2019-07-30,09:35:00,DRY,4.85,14.50,40.0,776.00,733.6
2019-07-30,09:40:00,DRY,5.43,14.60,38.0,776.00,750.1
2019-07-30,09:45:00,DRY,5.85,14.65,39.0,776.00,766.0
2019-07-30,09:50:00,DRY,4.80,14.47,41.0,776.00,782.8
2019-07-30,09:55:00,DRY,4.10,14.70,41.0,776.00,799.0
2019-07-30,10:00:00,DRY,4.90,14.90,40.3,776.00,814.5
2019-07-30,10:05:00,DRY,5.30,15.00,40.5,776.00,831.7
2019-07-30,10:10:00,DRY,4.73,15.30,34.7,776.00,847.1
2019-07-30,10:15:00,DRY,4.95,15.35,35.5,776.00,859.7
2019-07-30,10:20:00,DRY,4.67,15.07,35.7,776.00,874.0
2019-07-30,10:25:00,DRY,4.40,15.05,40.0,776.00,889.5
2019-07-30,10:30:00,DRY,4.33,15.27,38.0,776.00,902.4
2019-07-30,10:35:00,DRY,3.90,15.20,39.5,776.00,915.9
2019-07-30,10:40:00,DRY,3.77,14.93,40.0,776.33,929.3
2019-07-30,10:45:00,DRY,3.35,15.10,38.5,776.00,941.4
2019-07-30,10:50:00,DRY,2.77,15.70,37.3,776.00,954.9
2019-07-30,10:55:00,DRY,2.35,15.60,41.0,776.00,966.5
2019-07-30,11:00:00,DRY,1.80,15.30,40.7,776.00,977.0
2019-07-30,11:05:00,DRY,1.00,15.50,41.5,776.00,987.1
2019-07-30,11:10:00,DRY,1.90,16.17,36.0,776.33,998.5
2019-07-30,11:15:00,DRY,1.90,16.45,34.5,776.00,1009.9
2019-07-30,11:20:00,DRY,2.27,16.40,35.3,776.00,1020.3
2019-07-30,11:25:00,DRY,3.15,16.05,38.0,776.00,1030.2
2019-07-30,11:30:00,DRY,3.10,16.37,36.0,776.00,1038.9
2019-07-30,11:35:00,DRY,2.75,16.70,37.0,776.00,1046.6
2019-07-30,11:40:00,DRY,2.87,17.43,34.0,776.00,1053.2
2019-07-30,11:45:00,DRY,2.30,17.15,34.0,776.00,1062.2
2019-07-30,11:50:00,DRY,2.90,17.67,32.7,776.00,1068.3
2019-07-30,11:55:00,DRY,3.10,17.00,37.0,776.00,1075.5
2019-07-30,12:00:00,DRY,2.73,16.70,41.0,776.00,1081.3
2019-07-30,12:05:00,DRY,2.75,17.10,39.0,776.00,1087.2
2019-07-30,12:10:00,DRY,2.70,16.73,37.0,776.00,1093.9
2019-07-30,12:15:00,DRY,3.40,17.30,41.0,776.00,1098.2
2019-07-30,12:20:00,DRY,2.83,16.67,38.3,776.00,1102.8
2019-07-30,12:25:00,DRY,3.35,16.00,41.5,776.00,1107.7
2019-07-30,12:30:00,DRY,2.50,16.20,39.0,776.00,1111.3
2019-07-30,12:35:00,DRY,2.65,16.60,36.5,776.00,1114.3
2019-07-30,12:40:00,DRY,3.23,16.97,39.7,776.00,1117.4
2019-07-30,12:45:00,DRY,2.30,16.95,38.5,776.00,1120.6
2019-07-30,12:50:00,DRY,3.10,17.00,37.3,776.00,1121.9
2019-07-30,12:55:00,DRY,3.20,16.90,40.0,776.00,1123.3
2019-07-30,13:00:00,DRY,3.53,16.67,38.7,776.00,1125.8
2019-07-30,13:05:00,DRY,1.50,16.65,34.5,776.00,1125.2
2019-07-30,13:10:00,DRY,3.57,16.63,40.0,776.00,1126.6
2019-07-30,13:15:00,DRY,3.05,16.50,39.5,776.00,1127.0
2019-07-30,13:20:00,DRY,2.10,16.77,36.7,776.00,1128.9
2019-07-30,13:25:00,DRY,2.85,16.35,38.0,776.00,1127.5
2019-07-30,13:30:00,DRY,3.10,16.10,39.0,776.00,1127.2
2019-07-30,13:35:00,DRY,3.70,16.70,39.0,776.00,1124.0
2019-07-30,13:40:00,DRY,3.30,16.97,36.7,776.00,1123.7
2019-07-30,13:45:00,DRY,3.55,16.65,42.0,776.00,1120.2
2019-07-30,13:50:00,DRY,2.73,16.50,42.7,776.00,1119.9
2019-07-30,13:55:00,DRY,1.65,16.00,42.5,776.00,1118.8
2019-07-30,14:00:00,DRY,1.77,16.33,40.3,776.00,1114.1
2019-07-30,14:05:00,DRY,2.50,16.80,41.0,776.00,1112.7
2019-07-30,14:10:00,DRY,1.30,17.17,33.7,776.00,1105.8
2019-07-30,14:15:00,DRY,2.25,17.60,36.5,776.00,1103.8
2019-07-30,14:20:00,DRY,1.83,17.80,33.0,776.00,1097.9
2019-07-30,14:25:00,DRY,2.00,17.50,35.0,776.00,1091.9
2019-07-30,14:30:00,DRY,1.87,18.00,34.0,776.00,1087.0
2019-07-30,14:35:00,DRY,2.55,18.25,33.0,776.00,1080.8
2019-07-30,14:40:00,DRY,2.37,17.87,33.3,776.00,1074.3
2019-07-30,14:45:00,DRY,2.95,17.65,30.5,776.00,1066.1
2019-07-30,14:50:00,DRY,2.63,17.33,32.0,776.00,1057.0
2019-07-30,14:55:00,DRY,2.70,17.70,31.5,776.00,1046.6
2019-07-30,15:00:00,DRY,2.67,17.50,34.7,775.67,1039.9